OBJECT S, 67264

Orbit data source: Space-Track

You're viewing an Uncataloged Satellite

Recently launched and/or uncataloged satellites may have evolving metadata. Metadata may include but not limited to: Owner, Maufacturer, Bus, Motor, and Mission.

OBJECT S, 67264 is a satellite in SSO that was launched on Sun, 28 Dec 2025 UTC via a SOYUZ-2-1B launch vehicle from the Vostochny Cosmodrome (VOSTO). Unknown objects in Earth's orbit typically refer to objects detected orbiting the Earth but have not yet been identified or cataloged. These objects could be anything from previously untracked satellites, spent rocket stages, debris from satellite collisions, or even natural meteoroids temporarily captured by Earth's gravity.

Loading next visibility...
Identifier
67264, 2025-313S
Orbit
SSO
Country
Flag of TBDTBD
Related business
Flag of IROmid-e-Faza company (SpaceOmid) (IR)
Manufacturer
OMID
Mission
Operational Commercial Imaging
Bus & Motor
KOWSAR, Unknown motor
Mass
30 kg wet, 30 kg dry
Launch date (UTC)
2025-12-28 (6 months ago)
Launch vehicle
SOYUZ-2-1B
Launch site
Vostochny Cosmodrome (VOSTO)
Object type
Unknown
Shape & HBR
Box, 0.1 m
Radar Cross Section
0.240 m², Medium (>0.1 m² and < 1m²)

Expand to show TLE details & history
Last TLE update: 9 hours ago

TLE from 9 hours ago
0 OBJECT S
1 67264U 25313S   26171.46815992  .00004803  00000-0  21066-3 0  9993
2 67264  97.4020 246.1405 0014617   4.5066 355.6299 15.22353111 26440
Epoch: 2026-06-20T11:14Z
TLE epoch observation values (Epoch: 2026-06-20T11:14:09.017Z)
Latitude
-0.00003°
Longitude
168.92058°
Altitude
491.814 km
Speed
7.625 km/s
True Right ascension
16h 24m 33s
True Declination
0° 00' 00"
Sunlit
Object was in full shadow at epoch
Visualization orbit readout
Latitude
Unknown
Longitude
Unknown
Altitude
Unknown
Speed
Unknown
Apparent Right ascension
Unknown
Apparent Declination
Unknown
Sunlit
N/A
Visualization observer readout
Local Sidereal Time
07:18:40
Azimuth
Unknown
Elevation
Unknown
Doppler factor
Unknown
Orbital elements
Apogee altitude
505.755 km
Perigee altitude
485.66 km
Semi-major axis
6,873.845 km
Eccentricity
0.00146
Inclination
97.402°
RAAN
246.1405°
Arg. of periapsis
4.5066°
True anomaly
355.61711°
Mean anomaly
355.6299°
Eccentric anomaly
355.62351°
Mean motion
3.80841 °/min
Orbital period
94.53 mins
BSTAR
0.00021066
Loading maneuver chart data...
Computing Atmospheric mass density...
Loading historical data...
Loading historical data...
Loading historical data...
Loading historical data...
Loading historical data...
Loading historical data...
Loading historical data...

Documentation

Showing up to 5 results
|